{"data":{"norad_id":61550,"intl_designator":"2024-184U","name":"STARLINK-32476","alt_names":[],"object_type":"PAYLOAD","status":"ACTIVE","operator":null,"country":"US","launch_date":"2024-10-15","launch_site_code":"AFWTR","launch_vehicle":null,"mission":null,"orbit_class":"UNKNOWN","rcs_meters":null,"size_class":null,"mass_kg":null,"dimensions":null,"purposes":["comms"],"wikipedia_slug":null,"has_3d_model":false,"image_url":null,"decayed_at":null,"tle_current":{"epoch":"2026-09-21T12:02:42.329184Z","epoch_age_seconds":105572,"freshness":"FRESH","line1":"1 61550U 24184U   26264.50187881 -.00000041  00000+0  99236-5 0  9993","line2":"2 61550  53.1604 181.0879 0001065  78.1927 281.9195 15.34384503108536","mean_motion":15.34384503,"eccentricity":0.0001065,"inclination_deg":53.1604,"raan_deg":181.0879,"arg_perigee_deg":78.1927,"mean_anomaly_deg":281.9195,"bstar":9.9236e-6,"rev_number":10853,"period_min":93.848705926353,"perigee_km":462.02074655357,"apogee_km":463.47785533567,"semimajor_km":6840.8863009446,"source":"CELESTRAK","updated_at":"2026-09-22T09:00:49.368609Z"}}}